Location: Unspecified
(0.0000°N, 0.0000°E)
Time: 04:05:17
(UTC+00:00)

A-11 Canister half - Pass Details

Date: 16 April 2026
Orbit: 1523 x 1685 km, 47.3° (Epoch: 13 May)

Event Time Altitude Azimuth Distance (km) Brightness Sun altitude
Rises 21:46:57 0° 223° (SW) 4,755 11.8 -55.4°
Enters shadow 21:49:18 - 224° (SW) 4,007 11.3 -56.0°
Reaches altitude 10° 21:49:59 10° 224° (SW) 3,790 - -56.1°
Maximum altitude 21:59:39 77° 309° (NW) 1,662 - -58.4°
Drops below altitude 10° 22:09:39 10° 35° (NE) 3,905 - -60.7°
Sets 22:12:51 0° 36° (NE) 4,905 - -61.5°
